Location: ??????
(38.3184°N, 23.6932°E)
Time: 02:28:00
(UTC+00:00)

Cosmos 1727 Rocket - Pass Details

Date: 16 October 2021
Orbit: 960 x 997 km, 82.9° (Epoch: 04 December)

Event Time Altitude Azimuth Distance (km) Brightness Sun altitude
Rises 16:29:16 0° 354° (N) 3,678 7.0 -9.3°
Reaches altitude 10° 16:31:48 10° 356° (N) 2,722 6.4 -9.8°
Maximum altitude 16:38:02 78° 82° (E) 990 3.9 -11.0°
Drops below altitude 10° 16:44:11 10° 170° (S) 2,687 6.2 -12.2°
Sets 16:46:40 0° 171° (S) 3,628 6.9 -12.7°
